Powrót do katalogu

STARLINK-2630

AktywnyŁącznośćVLEO
NORAD 48381·PAYLOAD·🇺🇸 United States

Wystrzelony May 4, 2021 z Cape Canaveral Space Force Station

Loading…

Następne Przeloty (najbliższe 24 godziny)

TLE

ŚwieżeSource: CelesTrak SupGP

Epoka: Sep 14, 2026, 22:05 UTC

1 48381C 21038AE  26257.92062500 -.00024728  00000+0 -79532-3 0  2574
2 48381  53.1591 187.7148 0001464  92.3090 289.9437 15.31708267    17

Śledź STARLINK-2630 w czasie rzeczywistym z AllMySat

Download on the App Store